COSMOS 1794

Satellite information

Favourite Embed

Satellite Type and Status

PAYLOADIN ORBIT

Key statistics

Satellite COSMOS 1794 at a glance.

Uptime

14109

Days in orbit

Revolutions

≈ 12.5

Per day

Orbit

LEO

Low Earth Orbit

Inclination

74.0

Latest

Satellite identification and parameters

Extended collection of information and parameters for COSMOS 1794.

Object identification

Identified? True

Debris? False

Object name: COSMOS 1794

International designator: 1986-092A

Object number (NORAD): 17138

Object ID (CCSDS): 17138

Country: COMMONWEALTH OF INDEPENDENT STATES (CIS)

Current information (Y/N): Y

RCS size: MEDIUM

Orbital parameters

Period: 115.601 minutes

Inclination: 74.0111 deg

SMA: 7860.821 km

Apoapsis: 1498.798 km

Periapsis: 1466.573 km

RAAN: 206.4248 deg

Eccentricy: 0.0020497

Argument of periapsis: 102.3597 deg

Mean anomaly: 14.9119 deg

Mean motion: 12.45664059 rev/day

Mean motion (dot): 0.00000012 rev/day2

B* drag term: 0.0001893 1/REarth

Two-line elements (TLE)

Creation date: July 7, 2025, 6:34 p.m.

Reference frame: TEME

Reference center: EARTH

Epoch: July 7, 2025, 12:47 p.m. UTC

TLE line 0: 0 COSMOS 1794

TLE line 1: 1 17138U 86092A 25188.53328616 .00000012 00000-0 18930-3 0 9990

TLE line 2: 2 17138 74.0111 206.4248 0020497 102.3597 14.9119 12.45664059756387

Live tracking on map

Real-time ground track for satellite COSMOS 1794.

In-orbit conjunctions

A list of the most updated potential collisions computed for object COSMOS 1794.

Target Orbit TCA Probability of collision Miss distance Type
COSMOS 1823 DEB LEO 2024-09-04 03:46:07 0.0001095564 324.0 (m) DEBRIS

Associated space launch

Military communications satellites

COSMOS 1794 was lifted into orbit during the mission ‘Kosmos-3M | Strela-1M 313-320’, on board a Kosmos-3M space rocket.

The launch took place on Nov. 21, 1986, 2 a.m. from 132/2.

For more information about the launch, click the button.

Launch to space Kosmos-3M | Strela-1M 313-320
Kosmos-3M | Strela-1M 313-320

Agency: N/A

Status: Launch Successful

Launch date: Nov. 21, 1986, 2 a.m. UTC

Rocket: Kosmos-3M

Launch pad: 132/2

Location: Plesetsk Cosmodrome, Russian Federation

...

Latest news about this satellite

There are no fresh news available about this satellite. Check back as we update our databases every day.


Newsletter sign-up

Weekly statistics, charts and insights to help you stay on top of the space industry.